Hourly Data Report for October 18, 2016

All times are specified in Local Standard Time (LST). Add 1 hour to adjust for Daylight Saving Time where and when it is observed.

GJOA HAVEN A
NUNAVUT

68°38'08.000" N
95°51'01.000" W
46.90 m
2302337
71597
YHK

Related Data

No related data is available for this station

Download Data

Hourly Data (October 2016)
Hourly Data Report for October 18, 2016
Temp Definition
°C
Dew Point Temp Definition
°C
Rel Hum Definition
%
Wind Dir Definition
10's deg

Wind Spd Definition
km/h
Visibility Definition
km
Stn Press Definition
kPa
Hmdx Definition


Wind Chill Definition


Weather Definition


TIME
00:00 Legend Double Dagger -9.6 -12.6 79 30 8 16.1 101.95   -14 Snow
01:00 Legend Double Dagger -9.9 -12.5 82 31 11 16.1 101.94   -15 Snow
02:00 Legend Double Dagger -9.3 -12.0 81 31 11 16.1 101.95   -15 LegendNANA
03:00 Legend Double Dagger -9.3 -11.8 82   0 16.1 101.96     Snow
04:00 Legend Double Dagger -8.7 -12.0 77 32 5 16.1 101.94   -11 LegendNANA
05:00 Legend Double Dagger -9.1 -11.8 81 32 8 16.1 101.94   -13 Snow
06:00 Legend Double Dagger -9.3 -11.5 84 LegendMM 4 16.1 101.92   -12 Snow
07:00 Legend Double Dagger -8.4 -11.3 80 13 8 16.1 101.88   -13 Snow
08:00 Legend Double Dagger -8.5 -10.9 83 16 15 16.1 101.86   -15 Snow
09:00 Legend Double Dagger -8.7 -10.2 89 15 21 16.1 101.82   -16 Snow
10:00 Legend Double Dagger -8.4 -10.6 84 15 21 16.1 101.80   -16 Snow
11:00 Legend Double Dagger -8.3 -10.7 83 13 26 16.1 101.71   -17 LegendNANA
12:00 Legend Double Dagger -8.8 -10.7 86 14 22 16.1 101.67   -17 LegendNANA
13:00 Legend Double Dagger -8.7 -10.1 90 13 22 16.1 101.61   -17 LegendNANA
14:00 Legend Double Dagger -8.6 -9.4 94 14 22 16.1 101.56   -16 LegendNANA
15:00 Legend Double Dagger -8.4 -9.3 93 17 17 3.6 101.53   -15 Snow
16:00 Legend Double Dagger -7.7 -8.6 93 17 13 8.1 101.46   -13 Snow
17:00 Legend Double Dagger -6.4 -7.4 93 17 18 3.6 101.38   -13 Snow
18:00 Legend Double Dagger -6.0 -7.0 93 19 21 9.7 101.30   -13 Snow
19:00 Legend Double Dagger -5.7 -6.7 93 20 30 9.7 101.21   -14 Snow
20:00 Legend Double Dagger -5.4 -6.1 95 20 28 4.8 101.13   -13 Snow
21:00 Legend Double Dagger -4.7 -5.1 97 21 30 2.8 101.04   -13 Snow
22:00 Legend Double Dagger -3.9 -4.3 97 21 34 4.8 100.94   -12 Snow
23:00 Legend Double Dagger -3.3 -3.9 96 21 41 3.2 100.85   -12 Snow

Notes on Data Quality.

Legend

  • E = Estimated
  • M = Missing
  • NA = Not Available
  • ‡ = Partner data that is not subject to review by the National Climate Archives
Date modified: